Skip Page Navigation
NASA JPL Caltech
NASA Logo - Jet Propulsion Laboratory + View the NASA Portal
+ Center for Near-Earth Object Studies
JPL Home Earth Solar System Stars & Galaxies Technology
JPL Solar System Dynamics
BODIES ORBITS EPHEMERIDES TOOLS PHYSICAL DATA DISCOVERY FAQ SITE MAP
IMPORTANT: The SSD Announcement email list is now available. Major changes are coming in the near future, including possible hostname and/or URL changes. To be notified of such changes, subscribe to this email list.

Please visit this page for more details.


JPL Small-Body Database Browser
Search: [ help ]  
201827 (2003 YG30)
Classification: Main-belt Asteroid          SPK-ID: 2201827
Ephemeris | Orbit Diagram | Orbital Elements | Mission Design | Physical Parameters | Discovery Circumstances | Close-Approach Data ]

[ show orbit diagram ]
Orbital Elements at Epoch 2459000.5 (2020-May-31.0) TDB
Reference: JPL 16 (heliocentric ecliptic J2000)
 Element Value Uncertainty (1-sigma)   Units 
e .1816587099835412 5.7677e-08  
a 2.977868350625611 2.969e-08 au
q 2.436912627550147 1.7287e-07 au
i 6.426675297483653 5.3642e-06 deg
node 282.6555296123748 7.9136e-05 deg
peri 207.1218518534835 8.339e-05 deg
M 38.25727826065147 2.7411e-05 deg
tp 2458801.034294749732
(2019-Nov-13.53429475)
0.0001417 TDB
period 1876.96713291683
5.14
2.807e-05
7.685e-08
d
yr
n .1917987767002375 2.8684e-09 deg/d
Q 3.518824073701075 3.5083e-08 au
  Orbit Determination Parameters
   # obs. used (total)      371  
   data-arc span      9131 days (25.00 yr)  
   first obs. used      1994-01-10  
   last obs. used      2019-01-10  
   planetary ephem.      DE431  
   SB-pert. ephem.      SB431-N16  
   condition code      0  
   norm. resid. RMS      .54399  
   source      ORB  
   producer      Otto Matic  
   solution date      2019-Jul-13 12:45:14  

Additional Information
 Earth MOID = 1.45401 au 
 Jupiter MOID = 1.57766 au 
 T_jup = 3.226 
[ show covariance matrix ]

Ephemeris | Orbit Diagram | Orbital Elements | Mission Design | Physical Parameters | Discovery Circumstances | Close-Approach Data ]

Physical Parameter Table
Parameter Symbol Value Units Sigma Reference Notes
absolute magnitude H 15.3   n/a MPO418075  
diameter diameter 3.372 km 0.620 urn:nasa:pds:neowise_diameters_albedos::2.0[mainbelt] (http://adsabs.harvard.edu/abs/2011ApJ...741...68M)  
geometric albedo albedo 0.129   0.074 urn:nasa:pds:neowise_diameters_albedos::2.0[mainbelt] (http://adsabs.harvard.edu/abs/2011ApJ...741...68M)  

201827 (2003 YG30)          Discovered 2003-Dec-18 by LINEAR at Socorro
Reference: 20081212/Numbers.arcLast Updated: 2008-12-12

[ hide close-approach data ]
Close-Approach Data   ...sorted by Date/Time (TDB)
Date/Time (TDB) Time Uncertainty
(days_HH:MM)
Body Nominal Distance (au) Minimum Distance (au) Maximum Distance (au) V-relative (km/s) V-infinity (km/s) JD (TDB) Time Uncertainty (minutes) Semi-major axis (km) Semi-minor axis (km) range-LOV angle (deg) N-sigma BP Orbit Ref. Reference Modified
1914-Jun-28 13:48 00:05 Jupiter 1.57446899336928 1.57446829046997 1.57446969627485 1.91888177378434 1.61436066675358 2420312.074831033 4.64654146378238 477.349346829934 99.8867300143843 82.2252409732413 967943.71837223 T 16 CATAB v2.0e-lin.ifort 2019-Jul-13 12:45:18 2019-Jul-13 12:45
1950-Dec-07 04:37 00:03 Jupiter 1.65749105994713 1.65748933371591 1.65749278617665 1.56916818596927 1.20009791211953 2433622.692559331 3.16493650909335 548.626708447369 122.257455980019 69.0889064334818 1106628.83505729 T 16 CATAB v2.0e-lin.ifort 2019-Jul-13 12:45:18 2019-Jul-13 12:45
1987-Jun-25 07:31 00:01 Jupiter 1.90393301653551 1.90393160606069 1.90393442700881 2.42636982290843 2.23551105610633 2446971.813233822 1.44499837571999 77.8425955290703 18.2191737374377 -89.3780086751769 752516.179839909 T 16 CATAB v2.0e-lin.ifort 2019-Jul-13 12:45:18 2019-Jul-13 12:45
1996-Feb-02 03:00 00:01 Jupiter 1.9384345747668 1.93843345782097 1.93843569171339 2.82913864385612 2.6702249325713 2450115.625145304 1.0430371175114 135.587410700846 30.9373945676083 75.3419397718363 1609407.01430385 T 16 CATAB v2.0e-lin.ifort 2019-Jul-13 12:45:18 2019-Jul-13 12:45
2032-Jul-23 13:58 < 00:01 Jupiter 1.65608525820918 1.65608464679893 1.6560858696198 2.20230815512697 1.95633325937826 2463437.081937274 0.907631958343711 212.204069973833 30.5732880668791 82.6894734934154 1731554.60691751 T 16 CATAB v2.0e-lin.ifort 2019-Jul-13 12:45:18 2019-Jul-13 12:45
2068-Dec-23 14:59 00:03 Jupiter 1.57507430989744 1.57507350855843 1.57507511126062 1.69298461868921 1.33815676087641 2476739.124489019 2.69744386944112 1011.81957508199 101.198645287359 80.3552237957295 1332856.97680863 T 16 CATAB v2.0e-lin.ifort 2019-Jul-13 12:45:18 2019-Jul-13 12:45
2105-Jun-17 16:34 00:05 Jupiter 1.70639489645627 1.70639252626434 1.70639726666177 1.50451453687691 1.12729827157185 2490063.190313230 5.17421093082543 519.557257337246 157.810684648999 53.7462324708862 1098207.81843074 T 16 CATAB v2.0e-lin.ifort 2019-Jul-13 12:45:18 2019-Jul-13 12:45
2142-Jan-07 03:11 00:07 Jupiter 1.96149285662535 1.96148882319228 1.9614968900649 2.8782035457604 2.72404199139604 2503415.632394268 6.90446744836486 300.934186895889 30.0312671807993 74.0512275417831 951615.523241903 T 16 CATAB v2.0e-lin.ifort 2019-Jul-13 12:45:18 2019-Jul-13 12:45
2150-Aug-04 06:00 00:07 Jupiter 1.85629404697826 1.8562891898373 1.85629890415753 2.67376379125046 2.49728204541138 2506546.750144998 7.00995682141118 515.516921102931 35.8697061300873 70.2449300996608 1144013.62149394 T 16 CATAB v2.0e-lin.ifort 2019-Jul-13 12:45:18 2019-Jul-13 12:45
2187-Jan-18 14:41 00:08 Jupiter 1.62109133667515 1.6210885091275 1.62109416425874 2.0075486417673 1.7277872325168 2519863.111828749 8.29418505673173 533.393509605375 79.5636194754093 -87.3781501813007 609368.207356128 T 16 CATAB v2.0e-lin.ifort 2019-Jul-13 12:45:18 2019-Jul-13 12:45

Alternate Designations
 2003 YG30 = 1994 BW3 
Ephemeris | Orbit Diagram | Orbital Elements | Mission Design | Physical Parameters | Discovery Circumstances | Close-Approach Data ]
ABOUT SSD CREDITS/AWARDS PRIVACY/COPYRIGHT GLOSSARY LINKS
FirstGov 2020-Feb-21 04:31 UT
(server date/time)  
NASA Home Page
Site Manager:   Ryan S. Park
Webmaster  Alan B. Chamberlin